"2016-01-03 00:00:00",1251291,1.304,244.6,6.849,1.341,7.395,100.4749,0.511,1.824,23.01,0,109.7,13.35,1.27,206.6
"2016-01-03 00:00:30",1251292,1.624,244.5,5.883,1.375,7.947,100.4639,0.483,1.768,22.87,0,109.7,13.35,1.24,206.5
"2016-01-03 00:01:00",1251293,0.207,232.2,1.824,0.022,5.2,100.458,0.468,1.597,22.68,0,109.7,13.4,1.22,194.2
"2016-01-03 00:01:30",1251294,1.443,236.8,6.49,1.366,7.457,100.4509,0.45,1.746,22.81,0,109.7,13.34,1.20,198.8
"2016-01-03 00:02:00",1251295,0.538,233.2,4.348,0.852,5.43,100.4521,0.453,1.604,22.68,0,109.7,13.35,1.21,195.2
"2016-01-03 00:02:30",1251296,0.207,231.7,1.099,0.021,4.57,100.4436,0.432,1.516,22.64,0,109.7,13.39,1.19,193.7
"2016-01-03 00:03:00",1251297,0.187,231.2,0.875,0.04,4.514,100.4402,0.423,1.518,22.66,0,109.7,13.39,1.18,193.2
"2016-01-03 00:03:30",1251298,0.225,229.4,1.628,0.014,4.613,100.4272,0.39,1.49,22.7,0,109.7,13.39,1.14,191.4
"2016-01-03 00:04:00",1251299,0.892,233.5,6.074,1.165,6.332,100.4275,0.39,1.603,22.88,0,109.7,13.35,1.14,195.5
"2016-01-03 00:04:30",1251300,1.785,241.4,7.014,1.317,7.983,100.4249,0.384,1.664,23.04,0,109.7,13.35,1.14,203.4
"2016-01-03 00:05:00",1251301,1.6,241.7,6.948,1.342,7.692,100.4133,0.354,1.602,23.01,0,109.7,13.35,1.11,203.7
"2016-01-03 00:05:30",1251302,0.22,234.3,1.116,0.017,5.121,100.4117,0.35,1.437,22.9,0,109.7,13.4,1.10,196.3
"2016-01-03 00:06:00",1251303,0.558,237,3.529,0.836,5.368,100.4004,0.321,1.416,22.94,0,109.7,13.35,1.07,199.0
"2016-01-03 00:06:30",1251304,1.166,243,7.083,1.262,6.777,100.4001,0.321,1.587,23.1,0,109.7,13.35,1.07,205.0
"2016-01-03 00:07:00",1251305,0.842,239,6.853,1.11,5.658,100.4001,0.321,1.399,22.91,0,109.7,13.36,1.07,201.0
"2016-01-03 00:07:30",1251306,0.341,239.2,0.84,0.036,4.649,100.3913,0.298,1.379,22.87,0,109.7,13.4,1.05,201.2
"2016-01-03 00:08:00",1251307,1.088,242.6,5.853,1.192,6.111,100.3789,0.266,1.429,22.91,0,109.7,13.37,1.02,204.6
"2016-01-03 00:08:30",1251308,1.531,243.5,6.856,1.319,6.757,100.3729,0.251,1.474,22.92,0,109.7,13.37,1.00,205.5
"2016-01-03 00:09:00",1251309,1.722,239.7,7.472,1.28,7.379,100.3732,0.252,1.514,22.95,0,109.7,13.37,1.00,201.7
"2016-01-03 00:09:30",1251310,1.522,237.7,6.558,1.29,6.945,100.3727,0.251,1.431,22.82,0,109.7,13.37,1.00,199.7
"2016-01-03 00:10:00",1251311,0.658,235.1,0.832,0.075,4.939,100.365,0.231,1.301,22.64,0,109.7,13.41,0.98,197.1
"2016-01-03 00:10:30",1251312,1.104,239.5,5.189,0.957,5.189,100.3557,0.207,1.335,22.64,0,109.7,13.37,0.96,201.5
"2016-01-03 00:11:00",1251313,2.078,240.8,7.911,1.377,7.541,100.352,0.198,1.423,22.62,0,109.7,13.37,0.95,202.8
"2016-01-03 00:11:30",1251314,0.561,233.1,1.31,0.038,4.761,100.3413,0.171,1.275,22.36,0,109.7,13.42,0.92,195.1
"2016-01-03 00:12:00",1251315,1.228,233.4,5.795,1.161,6.114,100.3396,0.166,1.389,22.42,0,109.7,13.37,0.92,195.4
"2016-01-03 00:12:30",1251316,1.835,239.7,8.57,1.373,7.451,100.3396,0.166,1.429,22.47,0,109.7,13.37,0.92,201.7
"2016-01-03 00:13:00",1251317,2.118,245.2,6.832,1.333,7.797,100.3333,0.15,1.38,22.37,0,109.7,13.37,0.90,207.2
"2016-01-03 00:13:30",1251318,0.907,242.4,4.744,0.926,6.107,100.3234,0.125,1.315,22.28,0,109.7,13.38,0.88,204.4
"2016-01-03 00:14:00",1251319,0.509,238.4,1.502,0.042,5,100.3246,0.128,1.211,22.14,0,109.7,13.42,0.88,200.4
"2016-01-03 00:14:30",1251320,0.518,237.1,1.249,0.038,4.766,100.3152,0.104,1.195,22.11,0,109.7,13.42,0.86,199.1
"2016-01-03 00:15:00",1251321,1.387,236.8,6.494,1.256,6.238,100.3153,0.104,1.296,22.18,0,109.7,13.37,0.86,198.8
"2016-01-03 00:15:30",1251322,1.196,231.5,5.728,1.17,6.344,100.3184,0.112,1.297,22.18,0,109.7,13.38,0.86,193.5
"2016-01-03 00:16:00",1251323,1.668,232.8,6.528,1.36,7.012,100.3212,0.119,1.272,22.15,0,109.7,13.38,0.87,194.8
"2016-01-03 00:16:30",1251324,1.866,236.5,6.701,1.358,7.126,100.3221,0.122,1.349,22.21,0,109.7,13.38,0.87,198.5
"2016-01-03 00:17:00",1251325,1.675,237.8,6.829,1.284,6.703,100.3221,0.122,1.265,22.09,0,109.7,13.38,0.87,199.8
"2016-01-03 00:17:30",1251326,1.493,237.3,5.947,1.194,6.201,100.3207,0.118,1.247,22.1,0,109.7,13.37,0.87,199.3
"2016-01-03 00:18:00",1251327,0.781,234.8,0.598,0.037,4.747,100.3161,0.106,1.138,21.93,0,109.7,13.42,0.86,196.8
"2016-01-03 00:18:30",1251328,0.798,237,0.855,0.042,4.698,100.3133,0.099,1.153,21.81,0,109.7,13.42,0.85,199.0
"2016-01-03 00:19:00",1251329,1.389,241.2,5.731,1.046,5.832,100.3128,0.098,1.234,21.82,0,109.7,13.37,0.85,203.2
"2016-01-03 00:19:30",1251330,2.186,244.5,6.899,1.381,7.554,100.3142,0.101,1.324,21.83,0,109.7,13.37,0.85,206.5
"2016-01-03 00:20:00",1251331,2.187,244.6,6.978,1.32,7.425,100.3111,0.094,1.247,21.66,0,109.7,13.37,0.85,206.6
"2016-01-03 00:20:30",1251332,2.033,245.9,6.779,1.315,7.764,100.3088,0.088,1.35,21.74,0,109.7,13.38,0.84,207.9
"2016-01-03 00:21:00",1251333,2.271,245.4,6.691,1.326,7.573,100.3048,0.078,1.23,21.62,0,109.7,13.37,0.83,207.4
"2016-01-03 00:21:30",1251334,1.045,236.4,1.07,0.033,5.257,100.3057,0.08,1.109,21.53,0,109.7,13.42,0.83,198.4
"2016-01-03 00:22:00",1251335,1.049,237.2,3.882,0.045,4.995,100.3057,0.08,1.125,21.58,0,109.7,13.42,0.83,199.2
"2016-01-03 00:22:30",1251336,0.943,237.3,4.746,0.061,5.015,100.306,0.081,1.16,21.53,0,109.7,13.42,0.83,199.3
"2016-01-03 00:23:00",1251337,2.321,247.1,7.855,1.35,7.918,100.306,0.081,1.348,21.57,0,109.7,13.38,0.83,209.1
"2016-01-03 00:23:30",1251338,2.297,248,6.835,1.333,7.686,100.3074,0.084,1.335,21.97,0,109.7,13.38,0.84,210.0
"2016-01-03 00:24:00",1251339,2.931,250.2,7.179,1.276,8.83,100.3102,0.091,1.361,22.21,0,109.7,13.38,0.84,212.2
"2016-01-03 00:24:30",1251340,2.279,244.3,6.979,1.309,7.641,100.3148,0.103,1.322,22.07,0,109.6,13.39,0.86,206.3
"2016-01-03 00:25:00",1251341,1.666,243.5,5.407,1.025,5.964,100.3201,0.117,1.159,21.8,0,109.7,13.39,0.87,205.5
"2016-01-03 00:25:30",1251342,1.158,239.9,0.551,0.032,5.085,100.3227,0.123,1.151,21.78,0,109.7,13.43,0.88,201.9
"2016-01-03 00:26:00",1251343,1.273,238.9,0.765,0.052,5.025,100.3233,0.125,1.164,21.75,0,109.7,13.43,0.88,200.9
"2016-01-03 00:26:30",1251344,2.423,243.7,6.651,1.318,7.134,100.3281,0.137,1.294,22.06,0,109.7,13.39,0.89,205.7
"2016-01-03 00:27:00",1251345,2.986,244.9,6.986,1.311,8.58,100.3306,0.143,1.44,22.33,0,109.7,13.39,0.90,206.9
"2016-01-03 00:27:30",1251346,3.12,245.1,6.657,1.215,8.75,100.3351,0.155,1.39,22.36,0,109.6,13.39,0.91,207.1
"2016-01-03 00:28:00",1251347,2.234,239.7,7.177,1.337,7.301,100.3388,0.164,1.288,22.21,0,109.6,13.39,0.92,201.7
"2016-01-03 00:28:30",1251348,1.22,232.5,0.713,0.031,5.066,100.3397,0.166,1.226,22.11,0,109.6,13.44,0.92,194.5
"2016-01-03 00:29:00",1251349,1.225,234.4,1.067,0.023,4.799,100.3397,0.166,1.188,22.03,0,109.6,13.43,0.92,196.4
"2016-01-03 00:29:30",1251350,1.219,237,0.746,0.032,4.963,100.3397,0.166,1.2,22.04,0,109.6,13.43,0.92,199.0
"2016-01-03 00:30:00",1251351,2.356,243,6.808,1.36,7.542,100.3397,0.166,1.349,22.24,0,109.6,13.4,0.92,205.0
"2016-01-03 00:30:30",1251352,2.814,241.7,7.176,1.325,8.23,100.3397,0.166,1.432,22.33,0,109.6,13.4,0.92,203.7
"2016-01-03 00:31:00",1251353,2.833,242.5,7.25,1.346,8.03,100.3397,0.166,1.412,22.33,0,109.6,13.4,0.92,204.5
"2016-01-03 00:31:30",1251354,2.763,241.4,7.602,1.312,8.16,100.3397,0.166,1.381,22.31,0,109.6,13.4,0.92,203.4
"2016-01-03 00:32:00",1251355,1.28,232.2,0.794,0.039,4.887,100.34,0.167,1.223,22.18,0,109.6,13.44,0.92,194.2
"2016-01-03 00:32:30",1251356,1.364,232.4,0.949,0.056,4.475,100.3431,0.175,1.231,22.25,0,109.6,13.44,0.93,194.4
"2016-01-03 00:33:00",1251357,1.345,231.9,0.981,0.057,4.604,100.3547,0.205,1.242,22.31,0,109.6,13.44,0.96,193.9
"2016-01-03 00:33:30",1251358,2.415,237.3,6.548,1.356,7.042,100.3601,0.219,1.417,22.52,0,109.6,13.4,0.97,199.3
"2016-01-03 00:34:00",1251359,3.21,241,6.415,1.203,8.87,100.3643,0.229,1.512,22.69,0,109.7,13.4,0.98,203.0
"2016-01-03 00:34:30",1251360,3.256,239.6,6.931,1.24,8.58,100.366,0.234,1.479,22.7,0,109.7,13.39,0.99,201.6
"2016-01-03 00:35:00",1251361,2.413,238.9,6.284,1.279,6.365,100.3711,0.247,1.391,22.64,0,109.7,13.39,1.00,200.9
"2016-01-03 00:35:30",1251362,1.616,234.9,1.323,0.078,5.14,100.3822,0.275,1.32,22.55,0,109.6,13.44,1.03,196.9
"2016-01-03 00:36:00",1251363,1.689,234,0.79,0.035,4.748,100.3873,0.288,1.285,22.45,0,109.6,13.44,1.04,196.0
"2016-01-03 00:36:30",1251364,2.329,237.6,5.439,1.159,5.919,100.3884,0.291,1.348,22.44,0,109.6,13.4,1.04,199.6
"2016-01-03 00:37:00",1251365,3.018,241.7,6.857,1.371,7.885,100.3913,0.298,1.567,22.59,0,109.7,13.39,1.05,203.7
"2016-01-03 00:37:30",1251366,3.308,241.8,6.841,1.31,8.19,100.4023,0.326,1.493,22.43,0,109.6,13.39,1.08,203.8
"2016-01-03 00:38:00",1251367,2.643,240.8,7.508,1.285,7.486,100.406,0.336,1.507,22.32,0,109.6,13.4,1.09,202.8
"2016-01-03 00:38:30",1251368,2.515,237.9,6.822,1.23,7.017,100.4091,0.344,1.521,22.18,0,109.6,13.39,1.10,199.9
"2016-01-03 00:39:00",1251369,1.711,234.2,1.054,0.005,5.042,100.4181,0.367,1.376,22.12,0,109.6,13.44,1.12,196.2
"2016-01-03 00:39:30",1251370,1.687,236.5,0.842,0.032,4.889,100.4247,0.383,1.385,22.22,0,109.6,13.44,1.14,198.5
"2016-01-03 00:40:00",1251371,2.757,242.8,6.373,1.332,7.147,100.4249,0.384,1.501,22.2,0,109.6,13.4,1.14,204.8
"2016-01-03 00:40:30",1251372,3.532,246.1,6.872,1.294,8.83,100.4261,0.387,1.666,22.16,0,109.6,13.4,1.14,208.1
"2016-01-03 00:41:00",1251373,3.363,245.8,6.818,1.327,8.61,100.4349,0.409,1.69,22.1,0,109.6,13.4,1.16,207.8
"2016-01-03 00:41:30",1251374,3.016,245.8,7.207,1.337,7.793,100.4493,0.446,1.662,22.24,0,109.6,13.4,1.20,207.8
"2016-01-03 00:42:00",1251375,2.475,241.3,6.223,1.203,6.311,100.4564,0.464,1.517,22.17,0,109.6,13.4,1.22,203.3
"2016-01-03 00:42:30",1251376,1.777,236.7,0.593,0.019,4.704,100.4609,0.476,1.477,22.16,0,109.6,13.45,1.23,198.7
"2016-01-03 00:43:00",1251377,2.057,237.5,4.349,0.831,5.056,100.4635,0.482,1.5,22.22,0,109.6,13.4,1.24,199.5
"2016-01-03 00:43:30",1251378,3.373,243.5,6.855,1.328,8.36,100.4742,0.51,1.746,22.47,0,109.6,13.4,1.26,205.5
"2016-01-03 00:44:00",1251379,2.9,239.8,7.038,1.307,7.797,100.4805,0.526,1.762,22.52,0,109.6,13.4,1.28,201.8
"2016-01-03 00:44:30",1251380,3.62,243,6.682,1.204,9.1,100.4856,0.539,1.794,22.52,0,109.6,13.4,1.29,205.0
"2016-01-03 00:45:00",1251381,2.564,237.7,6.713,1.274,6.737,100.4989,0.572,1.659,22.42,0,109.6,13.4,1.33,199.7
"2016-01-03 00:45:30",1251382,1.567,233.6,0.641,0.004,4.839,100.4989,0.572,1.576,22.32,0,109.6,13.45,1.33,195.6
"2016-01-03 00:46:00",1251383,1.588,233.6,0.052,0.033,4.607,100.5,0.575,1.589,22.31,0,109.6,13.45,1.33,195.6
"2016-01-03 00:46:30",1251384,2.342,238.2,5.998,1.237,6.237,100.5048,0.588,1.715,22.36,0,109.6,13.41,1.34,200.2
"2016-01-03 00:47:00",1251385,3.101,241,7.044,1.37,7.839,100.5147,0.613,1.783,22.34,0,109.7,13.4,1.37,203.0
"2016-01-03 00:47:30",1251386,3.372,243.4,6.454,1.28,8.44,100.5181,0.622,1.879,22.28,0,109.7,13.41,1.38,205.4
"2016-01-03 00:48:00",1251387,3.071,241.1,6.656,1.344,7.753,100.5215,0.63,1.818,22.12,0,109.7,13.41,1.38,203.1
"2016-01-03 00:48:30",1251388,2.402,238.8,5.591,1.209,6.495,100.532,0.657,1.721,21.94,0,109.7,13.41,1.41,200.8
"2016-01-03 00:49:00",1251389,1.65,237.5,0.605,0.025,4.838,100.5365,0.669,1.666,21.93,0,109.7,13.45,1.42,199.5
"2016-01-03 00:49:30",1251390,2.011,240.2,4.971,0.932,5.459,100.5371,0.67,1.711,22.08,0,109.7,13.4,1.42,202.2
"2016-01-03 00:50:00",1251391,3.073,244.9,7.014,1.34,7.681,100.5357,0.666,1.832,22.27,0,109.7,13.41,1.42,206.9
"2016-01-03 00:50:30",1251392,2.639,241.6,6.94,1.317,7.237,100.5374,0.671,1.875,22.33,0,109.7,13.41,1.43,203.6
"2016-01-03 00:51:00",1251393,3.124,246,6.981,1.313,8.4,100.5462,0.693,1.947,22.35,0,109.7,13.4,1.45,208.0
"2016-01-03 00:51:30",1251394,2.157,240,6.697,1.208,6.489,100.5533,0.711,1.88,22.28,0,109.7,13.4,1.47,202.0
"2016-01-03 00:52:00",1251395,1.939,237.5,5.315,1.036,5.578,100.5567,0.72,1.757,22.11,0,109.7,13.4,1.47,199.5
"2016-01-03 00:52:30",1251396,1.463,232.6,1.117,0.045,4.676,100.5598,0.728,1.738,22.05,0,109.7,13.44,1.48,194.6
"2016-01-03 00:53:00",1251397,2.203,234.6,5.728,1.161,6.22,100.5663,0.744,1.842,22.13,0,109.7,13.4,1.50,196.6
"2016-01-03 00:53:30",1251398,2.884,236.6,6.574,1.319,7.765,100.5697,0.753,1.992,22.19,0,109.6,13.4,1.51,198.6
"2016-01-03 00:54:00",1251399,3.601,241.1,6.305,1.263,8.73,100.5714,0.757,1.981,22.09,0,109.6,13.4,1.51,203.1
"2016-01-03 00:54:30",1251400,3.207,240.4,7.387,1.294,8.28,100.5745,0.765,1.913,22,0,109.7,13.4,1.52,202.4
"2016-01-03 00:55:00",1251401,2.419,236.1,5.857,1.191,6.53,100.5762,0.77,1.899,21.95,0,109.7,13.4,1.52,198.1
"2016-01-03 00:55:30",1251402,1.701,233,1.92,0.05,4.928,100.5776,0.773,1.777,21.75,0,109.7,13.44,1.53,195.0
"2016-01-03 00:56:00",1251403,1.696,236.5,1.084,0.044,4.584,100.5765,0.77,1.784,21.69,0,109.7,13.44,1.53,198.5
"2016-01-03 00:56:30",1251404,2.467,240.1,6.214,1.22,6.482,100.5768,0.771,1.963,21.82,0,109.7,13.41,1.53,202.1
"2016-01-03 00:57:00",1251405,3.125,240.9,6.888,1.357,7.627,100.5785,0.776,1.979,21.78,0,109.7,13.41,1.53,202.9
"2016-01-03 00:57:30",1251406,3.341,243.5,7.307,1.351,8.18,100.5793,0.778,2.056,21.86,0,109.7,13.41,1.53,205.5
"2016-01-03 00:58:00",1251407,2.772,242.3,6.909,1.343,7.221,100.5833,0.788,1.967,21.75,0,109.7,13.4,1.54,204.3
"2016-01-03 00:58:30",1251408,2.041,240.1,5.971,1.017,6.065,100.5878,0.799,1.92,21.66,0,109.7,13.41,1.55,202.1
"2016-01-03 00:59:00",1251409,1.677,236.1,1.045,0.042,4.537,100.5932,0.813,1.831,21.53,0,109.7,13.45,1.57,198.1
"2016-01-03 00:59:30",1251410,2.619,239.3,6.58,1.272,6.179,100.5932,0.813,1.884,21.57,0,109.7,13.41,1.57,201.3
"2016-01-03 01:00:00",1251411,3.356,243,6.8,1.337,8.24,100.5941,0.815,2.068,21.63,0,109.7,13.41,1.57,205.0
"2016-01-03 01:00:30",1251412,3.278,240.2,6.967,1.361,8.19,100.5946,0.817,2.001,21.51,0,109.6,13.41,1.57,202.2
"2016-01-03 01:01:00",1251413,3.296,239.3,6.891,1.311,8.07,100.5949,0.817,2.032,21.45,0,109.7,13.41,1.57,201.3
"2016-01-03 01:01:30",1251414,2.44,233.8,6.635,1.202,6.863,100.5966,0.822,1.994,21.39,0,109.7,13.41,1.58,195.8
"2016-01-03 01:02:00",1251415,1.715,229.5,0.953,0.039,5.071,100.6011,0.833,1.848,21.19,0,109.7,13.45,1.59,191.5
"2016-01-03 01:02:30",1251416,1.984,228.8,4.518,0.832,5.917,100.6037,0.84,1.932,21.21,0,109.7,13.41,1.59,190.8
"2016-01-03 01:03:00",1251417,2.813,232.2,7.343,1.382,7.132,100.606,0.846,1.966,21.22,0,109.7,13.41,1.60,194.2
"2016-01-03 01:03:30",1251418,3.087,232.6,6.848,1.395,7.937,100.6079,0.851,2.091,21.32,0,109.7,13.41,1.61,194.6
"2016-01-03 01:04:00",1251419,2.828,230.1,6.725,1.319,7.389,100.6096,0.855,2.027,21.17,0,109.7,13.41,1.61,192.1
"2016-01-03 01:04:30",1251420,2.91,230.3,6.821,1.314,7.416,100.6102,0.856,2.034,21.17,0,109.7,13.41,1.61,192.3
"2016-01-03 01:05:00",1251421,2.09,225.3,5.255,1.016,5.918,100.6113,0.859,1.955,21.04,0,109.7,13.41,1.61,187.3
"2016-01-03 01:05:30",1251422,1.561,223,0.741,0.019,4.873,100.6116,0.86,1.87,20.9,0,109.7,13.45,1.62,185.0
"2016-01-03 01:06:00",1251423,2.718,229.3,6.99,1.351,7.054,100.6116,0.86,1.954,21,0,109.7,13.41,1.62,191.3
"2016-01-03 01:06:30",1251424,2.441,230.2,6.854,1.302,7.121,100.6116,0.86,2.016,21.05,0,109.7,13.41,1.62,192.2
"2016-01-03 01:07:00",1251425,3.144,235,7.028,1.339,8.34,100.6116,0.86,2.047,21.08,0,109.7,13.41,1.62,197.0
"2016-01-03 01:07:30",1251426,2.452,234.7,6.976,1.276,6.982,100.6116,0.86,2.039,21.07,0,109.7,13.41,1.62,196.7
"2016-01-03 01:08:00",1251427,3.102,234,5.63,1.382,7.973,100.6116,0.86,2.043,21.02,0,109.7,13.4,1.62,196.0
"2016-01-03 01:08:30",1251428,1.685,224.8,1.217,0.046,5.011,100.6116,0.86,1.878,20.77,0,109.7,13.45,1.62,186.8
"2016-01-03 01:09:00",1251429,2.194,224.7,4.272,1.174,5.668,100.6116,0.86,1.89,20.6,0,109.7,13.41,1.62,186.7
"2016-01-03 01:09:30",1251430,2.6,225.5,5.823,1.224,6.537,100.6116,0.86,2.036,20.61,0,109.7,13.4,1.62,187.5
"2016-01-03 01:10:00",1251431,3.299,233.8,6.625,1.328,7.84,100.6119,0.861,2.131,20.66,0,109.7,13.4,1.62,195.8
"2016-01-03 01:10:30",1251432,3.112,234.9,6.789,1.34,7.565,100.6125,0.862,2.036,20.53,0,109.7,13.4,1.62,196.9
"2016-01-03 01:11:00",1251433,3.179,235.9,6.474,1.375,7.878,100.6142,0.867,2.068,20.48,0,109.7,13.4,1.62,197.9
"2016-01-03 01:11:30",1251434,2.327,230,5.561,1.086,6.159,100.615,0.869,1.987,20.41,0,109.7,13.4,1.62,192.0
"2016-01-03 01:12:00",1251435,1.743,227.1,0.601,0.037,5.1,100.6156,0.87,1.903,20.26,0,109.7,13.45,1.63,189.1
"2016-01-03 01:12:30",1251436,2.938,233,7.393,1.369,7.322,100.6187,0.878,2.06,20.34,0,109.7,13.41,1.63,195.0
"2016-01-03 01:13:00",1251437,2.815,232.6,6.927,1.356,7.428,100.6218,0.886,2.06,20.29,0,109.7,13.41,1.64,194.6
"2016-01-03 01:13:30",1251438,2.623,233.8,6.519,1.324,7.407,100.6224,0.887,2.076,20.24,0,109.7,13.41,1.64,195.8
"2016-01-03 01:14:00",1251439,3.128,238.8,6.812,1.352,8.38,100.6244,0.893,2.152,20.24,0,109.7,13.41,1.65,200.8
"2016-01-03 01:14:30",1251440,2.528,234.4,6.499,1.306,6.706,100.6246,0.893,2.016,20.11,0,109.7,13.41,1.65,196.4
"2016-01-03 01:15:00",1251441,1.439,229.2,0.561,0.027,4.884,100.6246,0.893,1.929,20.04,0,109.7,13.46,1.65,191.2
"2016-01-03 01:15:30",1251442,1.435,231.5,0.693,0.022,4.704,100.6241,0.892,1.928,20.05,0,109.7,13.46,1.65,193.5
"2016-01-03 01:16:00",1251443,2.778,239.1,7.274,1.362,7.306,100.6246,0.893,2.085,20.17,0,109.7,13.41,1.65,201.1
"2016-01-03 01:16:30",1251444,3.093,240.4,7.397,1.347,7.519,100.6241,0.892,2.078,20.12,0,109.7,13.42,1.65,202.4
"2016-01-03 01:17:00",1251445,2.543,240,7.534,1.335,7.339,100.6241,0.892,2.086,20.1,0,109.7,13.41,1.65,202.0
"2016-01-03 01:17:30",1251446,2.645,240.2,5.893,1.364,7.182,100.6255,0.895,2.076,20.08,0,109.7,13.41,1.65,202.2
"2016-01-03 01:18:00",1251447,2.24,236.6,5.728,1.242,6.297,100.6244,0.893,2.006,19.99,0,109.7,13.41,1.65,198.6
"2016-01-03 01:18:30",1251448,1.472,234,1.525,0.037,4.666,100.6255,0.895,1.925,19.88,0,109.7,13.46,1.65,196.0
"2016-01-03 01:19:00",1251449,1.493,237.6,0.857,0.029,4.954,100.6275,0.9,1.918,19.89,0,109.7,13.46,1.66,199.6
"2016-01-03 01:19:30",1251450,2.862,244.7,6.863,1.388,7.904,100.6278,0.901,2.137,20.06,0,109.7,13.42,1.66,206.7
"2016-01-03 01:20:00",1251451,3.195,245.8,6.982,1.358,7.898,100.6289,0.904,2.063,20.02,0,109.7,13.42,1.66,207.8
"2016-01-03 01:20:30",1251452,3.148,248.5,6.765,1.353,8.6,100.6297,0.906,2.159,20.18,0,109.7,13.41,1.66,210.5
"2016-01-03 01:21:00",1251453,2.756,245.6,7.495,1.332,7.718,100.6314,0.911,2.144,20.18,0,109.7,13.42,1.67,207.6
"2016-01-03 01:21:30",1251454,2.16,241,5.111,1.088,5.997,100.6357,0.921,1.959,20.01,0,109.7,13.41,1.68,203.0
"2016-01-03 01:22:00",1251455,1.558,237.9,0.607,0.05,4.72,100.6377,0.926,1.952,20.09,0,109.7,13.46,1.68,199.9
"2016-01-03 01:22:30",1251456,2.119,241.2,6.291,1.149,5.934,100.6402,0.933,2.062,20.24,0,109.7,13.42,1.69,203.2
"2016-01-03 01:23:00",1251457,2.732,243.9,7.083,1.377,7.446,100.6411,0.935,2.141,20.36,0,109.7,13.42,1.69,205.9
"2016-01-03 01:23:30",1251458,2.77,244.2,7.26,1.337,7.703,100.6413,0.936,2.108,20.34,0,109.7,13.42,1.69,206.2
"2016-01-03 01:24:00",1251459,3.07,243.3,6.959,1.317,8.01,100.6431,0.94,2.11,20.39,0,109.7,13.42,1.70,205.3
"2016-01-03 01:24:30",1251460,2.322,237.7,6.733,1.292,6.711,100.6445,0.944,2.154,20.41,0,109.7,13.41,1.70,199.7
"2016-01-03 01:25:00",1251461,1.446,232.2,2.479,0.5,4.866,100.6456,0.947,1.974,20.23,0,109.7,13.41,1.70,194.2
"2016-01-03 01:25:30",1251462,1.37,233.2,0.517,0.029,4.518,100.6456,0.947,1.96,20.2,0,109.7,13.45,1.70,195.2
"2016-01-03 01:26:00",1251463,2.031,236.8,6.267,1.221,6.176,100.6456,0.947,2.064,20.18,0,109.7,13.41,1.70,198.8
"2016-01-03 01:26:30",1251464,2.835,241.8,6.915,1.314,8.01,100.645,0.945,2.173,20.25,0,109.7,13.41,1.70,203.8
"2016-01-03 01:27:00",1251465,2.294,239.6,7.009,1.363,7.48,100.6456,0.947,2.147,20.19,0,109.7,13.41,1.70,201.6
"2016-01-03 01:27:30",1251466,2.292,239.4,6.923,1.329,7.831,100.645,0.945,2.21,20.19,0,109.7,13.41,1.70,201.4
"2016-01-03 01:28:00",1251467,2.084,240,6.859,1.32,7.19,100.645,0.945,2.053,20.02,0,109.7,13.41,1.70,202.0
"2016-01-03 01:28:30",1251468,1.072,236.4,0.498,0.015,5.368,100.645,0.945,1.961,19.95,0,109.7,13.45,1.70,198.4
"2016-01-03 01:29:00",1251469,1.073,233.5,1.012,0.015,4.992,100.6445,0.944,1.957,19.96,0,109.7,13.45,1.70,195.5
"2016-01-03 01:29:30",1251470,1.713,236.4,6.338,1.193,6.326,100.645,0.945,2.046,20,0,109.7,13.42,1.70,198.4
"2016-01-03 01:30:00",1251471,2.499,240.7,7.145,1.381,8.68,100.6442,0.943,2.173,20.08,0,109.7,13.42,1.70,202.7
"2016-01-03 01:30:30",1251472,2.165,239.2,7.041,1.344,7.595,100.6453,0.946,2.114,19.97,0,109.7,13.42,1.70,201.2
"2016-01-03 01:31:00",1251473,2.365,239.1,6.658,1.385,7.783,100.6453,0.946,2.161,19.97,0,109.7,13.42,1.70,201.1
"2016-01-03 01:31:30",1251474,1.689,234.3,6.469,1.16,6.589,100.6453,0.946,2.118,19.94,0,109.7,13.42,1.70,196.3
"2016-01-03 01:32:00",1251475,1.143,229,3.787,0.695,5.228,100.6453,0.946,1.989,19.86,0,109.7,13.42,1.70,191.0
"2016-01-03 01:32:30",1251476,0.875,226.2,0.541,0.018,4.803,100.6456,0.947,1.961,19.84,0,109.7,13.46,1.70,188.2
"2016-01-03 01:33:00",1251477,1.546,228.8,5.906,1.178,5.754,100.6453,0.946,2.004,19.86,0,109.7,13.42,1.70,190.8
"2016-01-03 01:33:30",1251478,1.718,229.3,6.251,1.263,6.262,100.6456,0.947,2.11,19.98,0,109.7,13.42,1.70,191.3
"2016-01-03 01:34:00",1251479,2.174,231.5,6.976,1.362,7.431,100.6453,0.946,2.148,20.01,0,109.7,13.42,1.70,193.5
"2016-01-03 01:34:30",1251480,2.673,232.7,6.633,1.293,8.37,100.6456,0.947,2.122,19.92,0,109.7,13.42,1.70,194.7
"2016-01-03 01:35:00",1251481,1.81,228.1,6.991,1.333,6.871,100.645,0.945,2.067,19.84,0,109.7,13.42,1.70,190.1
"2016-01-03 01:35:30",1251482,1.216,224.3,5.815,1.008,6.033,100.6453,0.946,2.079,19.76,0,109.7,13.42,1.70,186.3
"2016-01-03 01:36:00",1251483,0.794,223.3,1.34,0.048,4.792,100.6439,0.942,1.979,19.61,0,109.7,13.46,1.70,185.3
"2016-01-03 01:36:30",1251484,0.93,225.8,1.202,0.076,4.651,100.6428,0.939,1.969,19.57,0,109.7,13.46,1.69,187.8
"2016-01-03 01:37:00",1251485,1.682,233,6.376,1.176,6.338,100.6422,0.938,2.098,19.69,0,109.7,13.43,1.69,195.0
"2016-01-03 01:37:30",1251486,2.625,238.8,6.752,1.32,8.67,100.6419,0.937,2.218,19.86,0,109.7,13.43,1.69,200.8
"2016-01-03 01:38:00",1251487,2.104,235.3,7.173,1.342,7.603,100.6374,0.926,2.135,19.79,0,109.7,13.43,1.68,197.3
"2016-01-03 01:38:30",1251488,2.133,233.3,7.103,1.354,7.607,100.6337,0.916,2.129,19.79,0,109.7,13.43,1.67,195.3
"2016-01-03 01:39:00",1251489,1.28,230,5.213,1.016,5.929,100.6303,0.908,2.053,19.66,0,109.7,13.42,1.66,192.0
"2016-01-03 01:39:30",1251490,0.712,229.7,0.863,0.034,4.815,100.6289,0.904,1.954,19.53,0,109.7,13.46,1.66,191.7
"2016-01-03 01:40:00",1251491,0.709,226.7,0.695,0.036,4.891,100.6258,0.896,1.948,19.5,0,109.7,13.46,1.65,188.7
"2016-01-03 01:40:30",1251492,1.29,230.2,5.501,1.119,5.954,100.6235,0.89,1.965,19.51,0,109.7,13.43,1.65,192.2
"2016-01-03 01:41:00",1251493,1.582,231.4,6.437,1.265,7.13,100.6238,0.891,2.123,19.65,0,109.7,13.43,1.65,193.4
"2016-01-03 01:41:30",1251494,2.208,232.2,7.108,1.384,8.08,100.6244,0.893,2.14,19.72,0,109.7,13.43,1.65,194.2
"2016-01-03 01:42:00",1251495,2.016,231.9,6.388,1.37,7.572,100.6224,0.887,2.183,19.76,0,109.7,13.43,1.64,193.9
"2016-01-03 01:42:30",1251496,1.824,233.4,6.846,1.331,7.359,100.6184,0.877,2.116,19.76,0,109.7,13.43,1.63,195.4
"2016-01-03 01:43:00",1251497,0.983,228,2.888,0.682,5.164,100.6133,0.864,1.928,19.65,0,109.7,13.43,1.62,190.0
"2016-01-03 01:43:30",1251498,0.794,225.8,0.526,0.024,4.861,100.6128,0.863,1.911,19.65,0,109.7,13.47,1.62,187.8
"2016-01-03 01:44:00",1251499,0.811,227.6,1.011,0.019,5.061,100.6119,0.861,1.919,19.67,0,109.7,13.46,1.62,189.6
"2016-01-03 01:44:30",1251500,1.661,230.4,5.664,1.243,6.289,100.6125,0.862,2.005,19.79,0,109.7,13.43,1.62,192.4
"2016-01-03 01:45:00",1251501,2.025,233.4,7.135,1.339,7.556,100.6116,0.86,2.113,19.98,0,109.7,13.43,1.62,195.4
"2016-01-03 01:45:30",1251502,2.259,233.9,6.981,1.372,7.622,100.6122,0.861,2.091,20.03,0,109.7,13.43,1.62,195.9
"2016-01-03 01:46:00",1251503,2.105,233.5,6.745,1.344,7.477,100.6122,0.861,2.069,20.02,0,109.7,13.43,1.62,195.5
"2016-01-03 01:46:30",1251504,1.501,227.9,6.81,1.158,5.949,100.6125,0.862,1.912,19.86,0,109.7,13.43,1.62,189.9
"2016-01-03 01:47:00",1251505,0.919,222.8,0.671,0.048,4.681,100.613,0.864,1.893,19.82,0,109.7,13.47,1.62,184.8
"2016-01-03 01:47:30",1251506,1.095,221.3,0.706,0.033,4.559,100.6105,0.857,1.893,19.79,0,109.7,13.47,1.61,183.3
"2016-01-03 01:48:00",1251507,1.931,225.4,6.318,1.186,6.347,100.6051,0.843,1.976,19.88,0,109.7,13.43,1.60,187.4